2021-12-19 00:03:19 r, 15.80m,0000000041Hz,0000011412c,0000000.025s,-001.3C,00002191
2021-12-19 00:13:18 r, 15.52m,0000000054Hz,0000008882c,0000000.019s,-001.0C,00002191
2021-12-19 00:23:18 r, 15.82m,0000000040Hz,0000011614c,0000000.025s,-001.0C,00002191
2021-12-19 00:33:18 r, 15.86m,0000000038Hz,0000012124c,0000000.026s,-001.0C,00002191
2021-12-19 00:43:20 r, 15.80m,0000000040Hz,0000011476c,0000000.025s,-000.7C,00002191
2021-12-19 00:53:18 r, 15.81m,0000000040Hz,0000011533c,0000000.025s,-000.7C,00002191
2021-12-19 01:03:20 r, 15.91m,0000000037Hz,0000012617c,0000000.027s,-000.4C,00002191
2021-12-19 01:13:18 r, 15.91m,0000000037Hz,0000012671c,0000000.027s,-000.4C,00002191
2021-12-19 01:23:18 r, 15.99m,0000000033Hz,0000013703c,0000000.030s, 000.1C,00002191
2021-12-19 01:33:20 r, 16.01m,0000000033Hz,0000013895c,0000000.030s, 000.1C,00002191
2021-12-19 01:43:18 r, 16.01m,0000000033Hz,0000013838c,0000000.030s, 000.1C,00002191
2021-12-19 01:53:18 r, 16.08m,0000000031Hz,0000014841c,0000000.032s, 000.3C,00002191
2021-12-19 02:03:18 r, 16.06m,0000000032Hz,0000014506c,0000000.031s, 000.3C,00002191
2021-12-19 02:13:19 r, 16.06m,0000000032Hz,0000014487c,0000000.031s, 000.3C,00002191
2021-12-19 02:23:18 r, 16.07m,0000000031Hz,0000014720c,0000000.032s, 000.6C,00002191
2021-12-19 02:33:19 r, 15.97m,0000000034Hz,0000013408c,0000000.029s, 000.6C,00002191
2021-12-19 02:43:18 r, 16.10m,0000000030Hz,0000015078c,0000000.033s, 000.9C,00002191
2021-12-19 02:53:18 r, 16.09m,0000000031Hz,0000014963c,0000000.032s, 000.9C,00002191
2021-12-19 03:03:20 r, 16.11m,0000000030Hz,0000015180c,0000000.033s, 000.9C,00002191
2021-12-19 03:13:18 r, 16.17m,0000000029Hz,0000016055c,0000000.035s, 000.9C,00002191
2021-12-19 03:23:18 r, 16.17m,0000000028Hz,0000016166c,0000000.035s, 001.2C,00002191
2021-12-19 03:33:20 r, 16.09m,0000000031Hz,0000014864c,0000000.032s, 001.2C,00002191
2021-12-19 03:43:18 r, 16.09m,0000000031Hz,0000014858c,0000000.032s, 001.6C,00002191
2021-12-19 03:53:18 r, 16.23m,0000000027Hz,0000017061c,0000000.037s, 001.6C,00002191
2021-12-19 04:03:18 r, 16.26m,0000000027Hz,0000017476c,0000000.038s, 001.6C,00002191
2021-12-19 04:13:19 r, 16.26m,0000000027Hz,0000017498c,0000000.038s, 001.9C,00002191
2021-12-19 04:23:18 r, 16.54m,0000000020Hz,0000022596c,0000000.049s, 001.9C,00002191
2021-12-19 04:33:18 r, 16.42m,0000000022Hz,0000020415c,0000000.044s, 001.9C,00002191
2021-12-19 04:43:20 r, 16.46m,0000000021Hz,0000021117c,0000000.046s, 002.2C,00002191
2021-12-19 04:53:18 r, 16.60m,0000000019Hz,0000023856c,0000000.052s, 002.2C,00002191
2021-12-19 05:03:19 r, 16.45m,0000000022Hz,0000020898c,0000000.045s, 002.5C,00002191
2021-12-19 05:13:18 r, 16.58m,0000000019Hz,0000023533c,0000000.051s, 002.5C,00002191
2021-12-19 05:23:18 r, 16.71m,0000000017Hz,0000026512c,0000000.058s, 002.9C,00002191
2021-12-19 05:33:20 r, 16.65m,0000000018Hz,0000025107c,0000000.054s, 002.9C,00002191
2021-12-19 05:43:18 r, 16.68m,0000000018Hz,0000025791c,0000000.056s, 003.2C,00002191
2021-12-19 05:53:18 r, 16.82m,0000000016Hz,0000029389c,0000000.064s, 003.2C,00002191
2021-12-19 06:03:20 r, 16.85m,0000000016Hz,0000030103c,0000000.065s, 003.2C,00002191
2021-12-19 06:13:18 r, 16.54m,0000000020Hz,0000022641c,0000000.049s, 003.5C,00002191
2021-12-19 06:23:18 r, 17.18m,0000000011Hz,0000040873c,0000000.089s, 003.5C,00002191
2021-12-19 06:33:18 r, 17.33m,0000000010Hz,0000046918c,0000000.102s, 003.5C,00002191
2021-12-19 06:43:19 r, 17.38m,0000000010Hz,0000048936c,0000000.106s, 003.5C,00002191
2021-12-19 06:53:18 r, 17.19m,0000000011Hz,0000041311c,0000000.090s, 003.8C,00002191
2021-12-19 07:03:18 r, 17.85m,0000000006Hz,0000075952c,0000000.165s, 003.8C,00002191
2021-12-19 07:13:20 r, 17.30m,0000000011Hz,0000045698c,0000000.099s, 003.8C,00002191
2021-12-19 07:23:18 r, 16.57m,0000000020Hz,0000023249c,0000000.050s, 003.8C,00002191
2021-12-19 07:33:19 r, 15.54m,0000000050Hz,0000009081c,0000000.020s, 003.8C,00002191
2021-12-19 07:43:18 r, 13.53m,0000000328Hz,0000000000c,0000000.000s, 004.1C,00002191
2021-12-19 07:53:18 r, 11.72m,0000001738Hz,0000000000c,0000000.000s, 004.1C,00002191
2021-12-19 08:03:20 r, 09.98m,0000008672Hz,0000000000c,0000000.000s, 004.1C,00002191
2021-12-19 08:13:18 r, 08.65m,0000029281Hz,0000000000c,0000000.000s, 003.8C,00002191
2021-12-19 08:23:18 r, 07.54m,0000081871Hz,0000000000c,0000000.000s, 003.8C,00002191
2021-12-19 08:33:20 r, 06.84m,0000155340Hz,0000000000c,0000000.000s, 004.1C,00002191
2021-12-19 08:43:18 r, 06.45m,0000222853Hz,0000000000c,0000000.000s, 004.5C,00002191
2021-12-19 08:53:18 r, 06.11m,0000304664Hz,0000000000c,0000000.000s, 004.5C,00002191
2021-12-19 09:03:18 r, 00.00m,0000466996Hz,0000000000c,0000000.000s, 004.5C,00002191
2021-12-19 09:13:19 r, 00.00m,0000599019Hz,0000000000c,0000000.000s, 004.5C,00002191
2021-12-19 09:23:18 r, 00.00m,0000599015Hz,0000000000c,0000000.000s, 004.8C,00002191
2021-12-19 09:33:19 r, 00.00m,0000598948Hz,0000000000c,0000000.000s, 005.1C,00002191
2021-12-19 09:43:18 r, 00.00m,0000598980Hz,0000000000c,0000000.000s, 005.4C,00002191
2021-12-19 09:53:18 r, 00.00m,0000599005Hz,0000000000c,0000000.000s, 005.4C,00002191
2021-12-19 10:03:18 r, 00.00m,0000598953Hz,0000000000c,0000000.000s, 005.4C,00002191
2021-12-19 10:13:20 r, 00.00m,0000598911Hz,0000000000c,0000000.000s, 005.4C,00002191
2021-12-19 10:23:18 r, 00.00m,0000598916Hz,0000000000c,0000000.000s, 005.4C,00002191
2021-12-19 10:33:18 r, 00.00m,0000598826Hz,0000000000c,0000000.000s, 005.8C,00002191
2021-12-19 10:43:18 r, 00.00m,0000598808Hz,0000000000c,0000000.000s, 005.8C,00002191
2021-12-19 10:53:18 r, 00.00m,0000598909Hz,0000000000c,0000000.000s, 005.8C,00002191
2021-12-19 11:03:20 r, 00.00m,0000598967Hz,0000000000c,0000000.000s, 006.1C,00002191
2021-12-19 11:13:18 r, 00.00m,0000598773Hz,0000000000c,0000000.000s, 006.1C,00002191
2021-12-19 11:23:18 r, 00.00m,0000598865Hz,0000000000c,0000000.000s, 006.7C,00002191
2021-12-19 11:33:18 r, 00.00m,0000598770Hz,0000000000c,0000000.000s, 007.0C,00002191
2021-12-19 11:43:20 r, 00.00m,0000598810Hz,0000000000c,0000000.000s, 007.0C,00002191
2021-12-19 11:53:18 r, 00.00m,0000598762Hz,0000000000c,0000000.000s, 007.0C,00002191
2021-12-19 12:03:17 r, 00.00m,0000598690Hz,0000000000c,0000000.000s, 007.0C,00002191
2021-12-19 12:13:20 r, 00.00m,0000598833Hz,0000000000c,0000000.000s, 007.4C,00002191
2021-12-19 12:23:17 r, 00.00m,0000598635Hz,0000000000c,0000000.000s, 008.0C,00002191
2021-12-19 12:33:17 r, 00.00m,0000598585Hz,0000000000c,0000000.000s, 008.3C,00002191
2021-12-19 12:43:18 r, 00.00m,0000598543Hz,0000000000c,0000000.000s, 008.7C,00002191
2021-12-19 12:53:17 r, 00.00m,0000598533Hz,0000000000c,0000000.000s, 008.7C,00002191
2021-12-19 13:03:17 r, 00.00m,0000598526Hz,0000000000c,0000000.000s, 009.0C,00002191
2021-12-19 13:13:18 r, 00.00m,0000598561Hz,0000000000c,0000000.000s, 009.0C,00002191
2021-12-19 13:23:18 r, 00.00m,0000598551Hz,0000000000c,0000000.000s, 009.3C,00002191
2021-12-19 13:33:17 r, 00.00m,0000598545Hz,0000000000c,0000000.000s, 009.6C,00002191
2021-12-19 13:43:19 r, 00.00m,0000598524Hz,0000000000c,0000000.000s, 009.6C,00002191
2021-12-19 13:53:18 r, 00.00m,0000598374Hz,0000000000c,0000000.000s, 009.9C,00002191
2021-12-19 14:03:18 r, 00.00m,0000598582Hz,0000000000c,0000000.000s, 009.9C,00002191
2021-12-19 14:13:20 r, 00.00m,0000598556Hz,0000000000c,0000000.000s, 009.6C,00002191
2021-12-19 14:23:17 r, 00.00m,0000598584Hz,0000000000c,0000000.000s, 009.3C,00002191
2021-12-19 14:33:17 r, 00.00m,0000598543Hz,0000000000c,0000000.000s, 009.6C,00002191
2021-12-19 14:43:20 r, 00.00m,0000598546Hz,0000000000c,0000000.000s, 009.6C,00002191
2021-12-19 14:53:17 r, 00.00m,0000598612Hz,0000000000c,0000000.000s, 009.9C,00002191
2021-12-19 15:03:18 r, 00.00m,0000593395Hz,0000000000c,0000000.000s, 009.6C,00002191
2021-12-19 15:13:18 r, 05.82m,0000395829Hz,0000000000c,0000000.000s, 009.0C,00002191
2021-12-19 15:23:17 r, 00.00m,0000598752Hz,0000000000c,0000000.000s, 008.7C,00002191
2021-12-19 15:33:17 r, 00.00m,0000484810Hz,0000000000c,0000000.000s, 008.7C,00002191
2021-12-19 15:43:18 r, 00.00m,0000558860Hz,0000000000c,0000000.000s, 009.0C,00002191
2021-12-19 15:53:17 r, 05.84m,0000389885Hz,0000000000c,0000000.000s, 008.7C,00002191
2021-12-19 16:03:17 r, 06.34m,0000246397Hz,0000000000c,0000000.000s, 008.7C,00002191
2021-12-19 16:13:19 r, 06.89m,0000147640Hz,0000000000c,0000000.000s, 009.0C,00002191
2021-12-19 16:23:18 r, 07.36m,0000096178Hz,0000000000c,0000000.000s, 009.0C,00002191
2021-12-19 16:33:17 r, 08.11m,0000048094Hz,0000000000c,0000000.000s, 009.0C,00002191
2021-12-19 16:43:20 r, 09.37m,0000015112Hz,0000000000c,0000000.000s, 009.3C,00002191
2021-12-19 16:53:18 r, 10.86m,0000003827Hz,0000000000c,0000000.000s, 009.6C,00002191
2021-12-19 17:03:17 r, 12.59m,0000000781Hz,0000000000c,0000000.000s, 009.6C,00002191
2021-12-19 17:13:20 r, 14.51m,0000000132Hz,0000000000c,0000000.000s, 009.3C,00002191
2021-12-19 17:23:18 r, 16.14m,0000000030Hz,0000015601c,0000000.034s, 009.0C,00002191
2021-12-19 17:33:17 r, 17.42m,0000000009Hz,0000050822c,0000000.110s, 008.7C,00002191
2021-12-19 17:43:18 r, 18.27m,0000000004Hz,0000111138c,0000000.241s, 008.3C,00002191
2021-12-19 17:53:19 r, 18.32m,0000000004Hz,0000117001c,0000000.254s, 008.0C,00002191
2021-12-19 18:03:17 r, 18.12m,0000000005Hz,0000097077c,0000000.211s, 007.7C,00002191
2021-12-19 18:13:19 r, 18.07m,0000000005Hz,0000092668c,0000000.201s, 007.4C,00002191
2021-12-19 18:23:18 r, 18.01m,0000000005Hz,0000087938c,0000000.191s, 007.0C,00002191
2021-12-19 18:33:18 r, 17.85m,0000000006Hz,0000076140c,0000000.165s, 007.0C,00002191
2021-12-19 18:43:18 r, 17.81m,0000000007Hz,0000072930c,0000000.158s, 006.7C,00002191
2021-12-19 18:53:20 r, 17.74m,0000000007Hz,0000068466c,0000000.149s, 006.4C,00002191
2021-12-19 19:03:18 r, 17.68m,0000000007Hz,0000064923c,0000000.141s, 006.1C,00002191
2021-12-19 19:13:20 r, 17.58m,0000000008Hz,0000058819c,0000000.128s, 006.1C,00002191
2021-12-19 19:23:18 r, 17.49m,0000000009Hz,0000054178c,0000000.118s, 005.8C,00002191
2021-12-19 19:33:17 r, 17.55m,0000000008Hz,0000057227c,0000000.124s, 005.8C,00002191
2021-12-19 19:43:20 r, 17.35m,0000000009Hz,0000047679c,0000000.103s, 005.4C,00002191
2021-12-19 19:53:18 r, 17.24m,0000000011Hz,0000043047c,0000000.093s, 005.4C,00002191
2021-12-19 20:03:17 r, 17.19m,0000000011Hz,0000041297c,0000000.090s, 005.4C,00002191
2021-12-19 20:13:18 r, 17.15m,0000000012Hz,0000039913c,0000000.087s, 005.4C,00002191
2021-12-19 20:23:20 r, 17.59m,0000000008Hz,0000059330c,0000000.129s, 005.4C,00002191
2021-12-19 20:33:17 r, 16.98m,0000000014Hz,0000034049c,0000000.074s, 004.8C,00002191
2021-12-19 20:43:17 r, 16.95m,0000000014Hz,0000033244c,0000000.072s, 004.5C,00002191
2021-12-19 20:53:20 r, 16.88m,0000000015Hz,0000030886c,0000000.067s, 004.1C,00002191
2021-12-19 21:03:17 r, 16.80m,0000000016Hz,0000028750c,0000000.062s, 003.8C,00002191
2021-12-19 21:13:20 r, 16.75m,0000000017Hz,0000027547c,0000000.060s, 003.5C,00002191
2021-12-19 21:23:18 r, 16.89m,0000000015Hz,0000031202c,0000000.068s, 003.2C,00002191
2021-12-19 21:33:17 r, 17.46m,0000000009Hz,0000052892c,0000000.115s, 002.9C,00002191
2021-12-19 21:43:20 r, 16.96m,0000000014Hz,0000033383c,0000000.072s, 002.5C,00002191
2021-12-19 21:53:18 r, 17.54m,0000000008Hz,0000056676c,0000000.123s, 001.9C,00002191
2021-12-19 22:03:17 r, 17.46m,0000000009Hz,0000052783c,0000000.115s, 001.6C,00002191
2021-12-19 22:13:17 r, 17.37m,0000000010Hz,0000048614c,0000000.105s, 000.9C,00002191
2021-12-19 22:23:17 r, 17.25m,0000000011Hz,0000043656c,0000000.095s, 000.9C,00002191
2021-12-19 22:33:17 r, 17.10m,0000000012Hz,0000038062c,0000000.083s, 000.6C,00002191
2021-12-19 22:43:18 r, 16.94m,0000000014Hz,0000032861c,0000000.071s, 000.3C,00002191
2021-12-19 22:53:20 r, 16.68m,0000000018Hz,0000025623c,0000000.056s, 000.3C,00002191
2021-12-19 23:03:17 r, 16.40m,0000000023Hz,0000020020c,0000000.043s, 000.1C,00002191
2021-12-19 23:13:17 r, 16.13m,0000000029Hz,0000015503c,0000000.034s, 000.1C,00002191
2021-12-19 23:23:20 r, 15.84m,0000000039Hz,0000011921c,0000000.026s, 000.1C,00002191
2021-12-19 23:33:17 r, 15.62m,0000000048Hz,0000009751c,0000000.021s,-000.4C,00002191
2021-12-19 23:43:20 r, 15.46m,0000000054Hz,0000008445c,0000000.018s,-000.4C,00002191
2021-12-19 23:53:18 r, 15.33m,0000000062Hz,0000007407c,0000000.016s,-000.7C,00002191
